START_TIME,STEP,MOV.,M29,t_acc.,H22,t_acc.,H26,t_acc.,H30,t_acc.
1979-07-16 21:00:31.940 ,0,0,0.,24.0,0.,24.0,0.,24.0,0.,24.0
1979-07-16 21:00:55.940 ,0,1,0.,24.0,0.,24.0,0.,24.0,0.,24.0
1979-07-16 21:01:19.940 ,0,0,0.,24.0,0.,24.0,0.,24.0,0.,24.0
1979-07-16 21:01:43.940 ,1,1,0.,24.0,0.,24.0,0.,24.0,0.,24.0
1979-07-16 21:02:07.940 ,1,0,0.,24.0,0.,24.0,0.,24.0,0.,24.0
1979-07-16 21:02:31.940 ,2,1,0.,24.0,0.,24.0,0.,24.0,0.,24.0
1979-07-16 21:02:55.940 ,2,0,0.,24.0,0.,24.0,0.,24.0,0.,24.0
1979-07-16 21:03:19.940 ,3,1,0.,24.0,0.,24.0,0.,24.0,0.,24.0
1979-07-16 21:03:43.940 ,3,0,0.,24.0,0.,24.0,0.,24.0,0.,24.0
1979-07-16 21:04:07.940 ,4,1,0.,24.0,0.,24.0,0.,24.0,0.,24.0
1979-07-16 21:04:31.940 ,4,0,0.,24.0,0.,24.0,0.,24.0,0.,24.0
1979-07-16 21:04:55.940 ,5,1,0.,24.0,0.,24.0,0.,24.0,0.,24.0
1979-07-16 21:05:19.940 ,5,0,0.,24.0,0.,24.0,0.,24.0,0.,24.0
1979-07-16 21:05:43.940 ,6,1,0.,24.0,0.,24.0,0.,24.0,0.,24.0
1979-07-16 21:06:07.940 ,6,0,0.,24.0,0.,24.0,0.,24.0,0.,24.0
1979-07-16 21:06:31.940 ,7,0,0.,24.0,0.,24.0,0.,24.0,0.,24.0
1979-07-16 21:06:55.940 ,7,0,0.,24.0,0.,24.0,0.,24.0,0.,24.0
1979-07-16 21:07:19.940 ,5,1,0.,24.0,0.,24.0,0.,24.0,0.,24.0
1979-07-16 21:07:43.940 ,1,1,0.,24.0,0.,24.0,0.,24.0,0.,24.0
1979-07-16 21:08:07.940 ,2,1,0.,24.0,0.,24.0,0.,24.0,0.,24.0
1979-07-16 21:08:31.940 ,6,1,0.,24.0,0.,24.0,0.,24.0,0.,24.0
1979-07-16 21:08:55.940 ,5,1,0.,24.0,0.,24.0,0.,24.0,0.,24.0
1979-07-16 21:09:19.940 ,1,1,0.,24.0,0.,24.0,0.,24.0,0.,24.0
1979-07-16 21:09:43.940 ,2,1,0.,24.0,0.,24.0,0.,24.0,0.,24.0
1979-07-16 21:10:07.940 ,6,1,0.,24.0,0.,24.0,0.,24.0,0.,24.0
1979-07-16 21:10:31.940 ,5,1,0.,24.0,0.,24.0,0.,24.0,0.,24.0
1979-07-16 21:10:55.940 ,1,1,0.,24.0,0.,24.0,0.,24.0,0.,24.0
1979-07-16 21:11:19.940 ,2,1,0.,24.0,0.,24.0,0.,24.0,0.,24.0
1979-07-16 21:11:43.940 ,6,1,0.,24.0,0.,24.0,0.,24.0,0.,24.0
1979-07-16 21:12:07.940 ,5,1,0.,24.0,0.,24.0,0.,24.0,0.,24.0
1979-07-16 21:12:31.940 ,1,1,0.,24.0,0.,24.0,0.,24.0,0.,24.0
1979-07-16 21:12:55.940 ,2,1,0.,24.0,0.,24.0,0.,24.0,0.,24.0
1979-07-16 21:13:19.940 ,6,1,0.,24.0,0.,24.0,0.,24.0,0.,24.0
1979-07-16 21:13:43.940 ,5,1,0.,24.0,0.,24.0,0.,24.0,0.,24.0
1979-07-16 21:14:07.940 ,1,1,0.,24.0,0.,24.0,0.,24.0,0.,24.0
1979-07-16 21:14:31.940 ,2,1,0.,24.0,0.,24.0,0.,24.0,0.,24.0
1979-07-16 21:14:55.940 ,6,1,0.,24.0,0.,24.0,0.,24.0,0.,24.0
1979-07-16 21:15:19.940 ,5,1,0.,24.0,0.,24.0,0.,24.0,0.,24.0
1979-07-16 21:15:43.940 ,1,1,0.,24.0,0.,24.0,0.,24.0,0.,24.0
1979-07-16 21:16:07.940 ,2,1,0.,24.0,0.,24.0,0.,24.0,0.,24.0
1979-07-16 21:16:31.940 ,6,1,0.,24.0,0.,24.0,0.,24.0,0.,24.0
1979-07-16 21:16:55.940 ,5,1,0.,24.0,0.,24.0,0.,24.0,0.,24.0
1979-07-16 21:17:19.940 ,1,1,0.,24.0,0.,24.0,0.,24.0,0.,24.0
1979-07-16 21:17:43.940 ,0,0,0.,24.0,0.,24.0,0.,24.0,0.,24.0
1979-07-16 21:18:07.940 ,0,0,0.,24.0,0.,24.0,0.,24.0,0.,24.0
1979-07-16 21:18:31.940 ,5,1,0.,24.0,0.,24.0,0.,24.0,0.,24.0
1979-07-16 21:18:55.940 ,5,0,0.,24.0,0.,24.0,0.,24.0,0.,24.0
1979-07-16 21:19:19.940 ,4,1,0.,24.0,0.,24.0,0.,24.0,0.,24.0
1979-07-16 21:19:43.940 ,4,0,0.,24.0,0.,24.0,0.,24.0,0.,24.0
1979-07-16 21:20:07.940 ,3,1,0.,24.0,0.,24.0,0.,24.0,0.,24.0
1979-07-16 21:20:31.940 ,3,0,0.,24.0,0.,24.0,0.,24.0,0.,24.0
1979-07-16 21:20:55.940 ,2,1,0.,24.0,0.,24.0,0.,24.0,0.,24.0
1979-07-16 21:21:19.940 ,2,0,0.,24.0,0.,24.0,0.,24.0,0.,24.0
1979-07-16 21:21:43.940 ,1,1,0.,24.0,0.,24.0,0.,24.0,0.,24.0
1979-07-16 21:22:07.940 ,1,0,0.,24.0,0.,24.0,0.,24.0,0.,24.0
1979-07-16 21:22:31.940 ,0,1,0.,24.0,0.,24.0,0.,24.0,0.,24.0
1979-07-16 21:22:55.940 ,0,0,0.,24.0,0.,24.0,0.,24.0,0.,24.0
1979-07-16 21:23:19.940 ,0,1,0.,24.0,0.,24.0,0.,24.0,0.,24.0
1979-07-16 21:23:43.940 ,0,0,0.,24.0,0.,24.0,0.,24.0,0.,24.0
1979-07-16 21:24:07.940 ,1,1,0.,24.0,0.,24.0,0.,24.0,0.,24.0
1979-07-16 21:24:31.940 ,1,0,0.,24.0,0.,24.0,0.,24.0,0.,24.0
1979-07-16 21:24:55.940 ,2,1,0.,24.0,0.,24.0,0.,24.0,0.,24.0
1979-07-16 21:25:19.940 ,2,0,0.,24.0,0.,24.0,0.,24.0,0.,24.0
1979-07-16 21:25:43.940 ,3,1,0.,24.0,0.,24.0,0.,24.0,0.,24.0
1979-07-16 21:26:07.940 ,3,0,0.,24.0,0.,24.0,0.,24.0,0.,24.0
1979-07-16 21:26:31.940 ,4,1,0.,24.0,0.,24.0,0.,24.0,0.,24.0
1979-07-16 21:26:55.940 ,4,0,0.,24.0,0.,24.0,0.,24.0,0.,24.0
1979-07-16 21:27:19.940 ,5,1,0.,24.0,0.,24.0,0.,24.0,0.,24.0
1979-07-16 21:27:43.940 ,5,0,0.,24.0,0.,24.0,0.,24.0,0.,24.0
1979-07-16 21:28:07.940 ,6,1,0.,24.0,0.,24.0,0.,24.0,0.,24.0
1979-07-16 21:28:31.940 ,6,0,0.,24.0,0.,24.0,0.,24.0,0.,24.0
1979-07-16 21:28:55.940 ,7,1,0.,24.0,0.,24.0,0.,24.0,0.,24.0
1979-07-16 21:29:19.940 ,7,0,0.,24.0,0.,24.0,0.,24.0,0.,24.0
1979-07-16 21:29:43.940 ,7,1,0.,24.0,0.,24.0,0.,24.0,0.,24.0
1979-07-16 21:30:07.940 ,7,0,0.,24.0,0.,24.0,0.,24.0,0.,24.0
1979-07-16 21:30:31.940 ,6,1,0.,24.0,0.,24.0,0.,24.0,0.,24.0
1979-07-16 21:30:55.940 ,6,0,0.,24.0,0.,24.0,0.,24.0,0.,24.0
1979-07-16 21:31:19.940 ,5,1,0.,24.0,0.,24.0,0.,24.0,0.,24.0
1979-07-16 21:31:43.940 ,5,0,0.,24.0,0.,24.0,0.,24.0,0.,24.0
1979-07-16 21:32:07.940 ,4,1,0.,24.0,0.,24.0,0.,24.0,0.,24.0
1979-07-16 21:32:31.940 ,4,0,0.,24.0,0.,24.0,0.,24.0,0.,24.0
1979-07-16 21:32:55.940 ,3,1,0.,24.0,0.,24.0,0.,24.0,0.,24.0
1979-07-16 21:33:19.940 ,3,0,0.,24.0,0.,24.0,0.,24.0,0.,24.0
1979-07-16 21:33:43.940 ,2,1,0.,24.0,0.,24.0,0.,24.0,0.,24.0
1979-07-16 21:34:07.940 ,2,0,0.,24.0,0.,24.0,0.,24.0,0.,24.0
1979-07-16 21:34:31.940 ,1,1,0.,24.0,0.,24.0,0.,24.0,0.,24.0
1979-07-16 21:34:55.940 ,1,0,0.,24.0,0.,24.0,0.,24.0,0.,24.0
1979-07-16 21:35:19.940 ,0,1,0.,24.0,0.,24.0,0.,24.0,0.,24.0
1979-07-16 21:35:43.940 ,0,0,0.,24.0,0.,24.0,0.,24.0,0.,24.0
1979-07-16 21:36:07.940 ,0,1,0.,24.0,0.,24.0,0.,24.0,0.,24.0
1979-07-16 21:36:31.940 ,0,0,0.,24.0,0.,24.0,0.,24.0,0.,24.0
1979-07-16 21:36:55.940 ,1,1,0.,24.0,0.,24.0,0.,24.0,0.,24.0
1979-07-16 21:37:19.940 ,1,0,0.,24.0,0.,24.0,0.,24.0,0.,24.0
1979-07-16 21:37:43.940 ,2,1,0.,24.0,0.,24.0,0.,24.0,0.,24.0
1979-07-16 21:38:07.940 ,2,0,0.,24.0,0.,24.0,0.,24.0,0.,24.0
1979-07-16 21:38:31.940 ,3,1,0.,24.0,0.,24.0,0.,24.0,0.,24.0
1979-07-16 21:38:55.940 ,3,0,0.,24.0,0.,24.0,0.,24.0,0.,24.0
1979-07-16 21:39:19.940 ,4,1,0.,24.0,0.,24.0,0.,24.0,0.,24.0
1979-07-16 21:39:43.940 ,4,0,0.,24.0,0.,24.0,0.,24.0,0.,24.0
1979-07-16 21:40:07.940 ,5,1,0.,24.0,0.,24.0,0.,24.0,0.,24.0
1979-07-16 21:40:31.940 ,5,0,0.,24.0,0.,24.0,0.,24.0,0.,24.0
1979-07-16 21:40:55.940 ,6,1,0.,24.0,0.,24.0,0.,24.0,0.,24.0
1979-07-16 21:41:19.940 ,6,0,0.,24.0,0.,24.0,0.,24.0,0.,24.0
1979-07-16 21:41:43.940 ,7,1,0.,24.0,0.,24.0,0.,24.0,0.,24.0
1979-07-16 21:42:07.940 ,7,0,0.,24.0,0.,24.0,0.,24.0,0.,24.0
1979-07-16 21:42:31.940 ,7,1,0.,24.0,0.,24.0,0.,24.0,0.,24.0
1979-07-16 21:42:55.940 ,7,0,0.,24.0,0.,24.0,0.,24.0,0.,24.0
1979-07-16 21:43:19.940 ,6,1,0.,24.0,0.,24.0,0.,24.0,0.,24.0
1979-07-16 21:43:43.940 ,6,0,0.,24.0,0.,24.0,0.,24.0,0.,24.0
1979-07-16 21:44:07.940 ,5,1,0.,24.0,0.,24.0,0.,24.0,0.,24.0
1979-07-16 21:44:31.940 ,5,0,0.,24.0,0.,24.0,0.,24.0,0.,24.0
1979-07-16 21:44:55.940 ,4,1,0.,24.0,0.,24.0,0.,24.0,0.,24.0
1979-07-16 21:45:19.940 ,4,0,0.,24.0,0.,24.0,0.,24.0,0.,24.0
1979-07-16 21:45:43.940 ,3,1,0.,24.0,0.,24.0,0.,24.0,0.,24.0
1979-07-16 21:46:07.940 ,3,0,0.,24.0,0.,24.0,0.,24.0,0.,24.0
1979-07-16 21:46:31.940 ,2,1,0.,24.0,0.,24.0,0.,24.0,0.,24.0
1979-07-16 21:46:55.940 ,2,0,0.,24.0,0.,24.0,0.,24.0,0.,24.0
1979-07-16 21:47:19.940 ,1,1,0.,24.0,0.,24.0,0.,24.0,0.,24.0
1979-07-16 21:47:43.940 ,1,0,0.,24.0,0.,24.0,0.,24.0,0.,24.0
1979-07-16 21:48:07.940 ,0,1,0.,24.0,0.,24.0,0.,24.0,0.,24.0
1979-07-16 21:48:31.940 ,0,0,0.,24.0,0.,24.0,0.,24.0,0.,24.0
1979-07-16 21:48:55.940 ,0,1,0.,24.0,0.,24.0,0.,24.0,0.,24.0
1979-07-16 21:49:19.940 ,0,0,0.,24.0,0.,24.0,0.,24.0,0.,24.0
1979-07-16 21:49:43.940 ,1,1,0.,24.0,0.,24.0,0.,24.0,0.,24.0
1979-07-16 21:50:07.940 ,1,0,0.,24.0,0.,24.0,0.,24.0,0.,24.0
1979-07-16 21:50:31.940 ,2,1,0.,24.0,0.,24.0,0.,24.0,0.,24.0
1979-07-16 21:50:55.940 ,2,0,0.,24.0,0.,24.0,0.,24.0,0.,24.0
1979-07-16 21:51:19.940 ,3,1,0.,24.0,0.,24.0,0.,24.0,0.,24.0
1979-07-16 21:51:43.940 ,3,0,0.,24.0,0.,24.0,0.,24.0,0.,24.0
1979-07-16 21:52:07.940 ,4,1,0.,24.0,0.,24.0,0.,24.0,0.,24.0
1979-07-16 21:52:31.940 ,4,0,0.,24.0,0.,24.0,0.,24.0,0.,24.0
1979-07-16 21:52:55.940 ,5,1,0.,24.0,0.,24.0,0.,24.0,0.,24.0
1979-07-16 21:53:19.940 ,5,0,0.,24.0,0.,24.0,0.,24.0,0.,24.0
1979-07-16 21:53:43.940 ,6,1,0.,24.0,0.,24.0,0.,24.0,0.,24.0
1979-07-16 21:54:07.940 ,6,0,0.,24.0,0.,24.0,0.,24.0,0.,24.0
1979-07-16 21:54:31.940 ,7,0,0.,24.0,0.,24.0,0.,24.0,0.,24.0
1979-07-16 21:54:55.940 ,7,0,0.,24.0,0.,24.0,0.,24.0,0.,24.0
1979-07-16 21:55:19.940 ,5,1,0.,24.0,0.,24.0,0.,24.0,0.,24.0
1979-07-16 21:55:43.940 ,1,1,0.,24.0,0.,24.0,0.,24.0,0.,24.0
1979-07-16 21:56:07.940 ,2,1,0.,24.0,0.,24.0,0.,24.0,0.,24.0
1979-07-16 21:56:31.940 ,6,1,0.,24.0,0.,24.0,0.,24.0,0.,24.0
1979-07-16 21:56:55.940 ,5,1,0.,24.0,0.,24.0,0.,24.0,0.,24.0
1979-07-16 21:57:19.940 ,1,1,0.,24.0,0.,24.0,0.,24.0,0.,24.0
1979-07-16 21:57:43.940 ,2,1,0.,24.0,0.,24.0,0.,24.0,0.,24.0
1979-07-16 21:58:07.940 ,6,1,0.,24.0,0.,24.0,0.,24.0,0.,24.0
1979-07-16 21:58:31.940 ,5,1,0.,24.0,0.,24.0,0.,24.0,0.,24.0
1979-07-16 21:58:55.940 ,1,1,0.,24.0,0.,24.0,0.,24.0,0.,24.0
1979-07-16 21:59:19.940 ,2,1,0.,24.0,0.,24.0,0.,24.0,0.,24.0
1979-07-16 21:59:43.940 ,6,1,0.,24.0,0.,24.0,0.,24.0,0.,24.0
1979-07-16 22:00:07.940 ,5,1,0.,24.0,0.,24.0,0.,24.0,0.,24.0
1979-07-16 22:00:31.940 ,1,1,0.,24.0,0.,24.0,0.,24.0,0.,24.0
1979-07-16 22:00:55.940 ,2,1,0.,24.0,0.,24.0,0.,24.0,0.,24.0
1979-07-16 22:01:19.940 ,6,1,0.,24.0,0.,24.0,0.,24.0,0.,24.0
1979-07-16 22:01:43.940 ,5,1,0.,24.0,0.,24.0,0.,24.0,0.,24.0
1979-07-16 22:02:07.940 ,1,1,0.,24.0,0.,24.0,0.,24.0,0.,24.0
1979-07-16 22:02:31.940 ,2,1,0.,24.0,0.,24.0,0.,24.0,0.,24.0
1979-07-16 22:02:55.940 ,6,1,0.,24.0,0.,24.0,0.,24.0,0.,24.0
1979-07-16 22:03:19.940 ,5,1,0.,24.0,0.,24.0,0.,24.0,0.,24.0
1979-07-16 22:03:43.940 ,1,1,0.,24.0,0.,24.0,0.,24.0,0.,24.0
1979-07-16 22:04:07.940 ,2,1,0.,24.0,0.,24.0,0.,24.0,0.,24.0
1979-07-16 22:04:31.940 ,6,1,0.,24.0,0.,24.0,0.,24.0,0.,24.0
1979-07-16 22:04:55.940 ,5,1,0.,24.0,0.,24.0,0.,24.0,0.,24.0
1979-07-16 22:05:19.940 ,1,1,0.,24.0,0.,24.0,0.,24.0,0.,24.0
1979-07-16 22:05:43.940 ,0,0,0.,24.0,0.,24.0,0.,24.0,0.,24.0
1979-07-16 22:06:07.940 ,0,0,0.,24.0,0.,24.0,0.,24.0,0.,24.0
1979-07-16 22:06:31.940 ,5,1,0.,24.0,0.,24.0,0.,24.0,0.,24.0
1979-07-16 22:06:55.940 ,5,0,0.,24.0,0.,24.0,0.,24.0,0.,24.0
1979-07-16 22:07:19.940 ,4,1,0.,24.0,0.,24.0,0.,24.0,0.,24.0
1979-07-16 22:07:43.940 ,4,0,0.,24.0,0.,24.0,0.,24.0,0.,24.0
1979-07-16 22:08:07.940 ,3,1,0.,24.0,0.,24.0,0.,24.0,0.,24.0
1979-07-16 22:08:31.940 ,3,0,0.,24.0,0.,24.0,0.,24.0,0.,24.0
1979-07-16 22:08:55.940 ,2,1,0.,24.0,0.,24.0,0.,24.0,0.,24.0
1979-07-16 22:09:19.940 ,2,0,0.,24.0,0.,24.0,0.,24.0,0.,24.0
1979-07-16 22:09:43.940 ,1,1,0.,24.0,0.,24.0,0.,24.0,0.,24.0
1979-07-16 22:10:07.940 ,1,0,0.,24.0,0.,24.0,0.,24.0,0.,24.0
1979-07-16 22:10:31.940 ,0,1,0.,24.0,0.,24.0,0.,24.0,0.,24.0
1979-07-16 22:10:55.940 ,0,0,0.,24.0,0.,24.0,0.,24.0,0.,24.0
1979-07-16 22:11:19.940 ,0,1,0.,24.0,0.,24.0,0.,24.0,0.,24.0
1979-07-16 22:11:43.940 ,0,0,0.,24.0,0.,24.0,0.,24.0,0.,24.0
1979-07-16 22:12:07.940 ,1,1,0.,24.0,0.,24.0,0.,24.0,0.,24.0
1979-07-16 22:12:31.940 ,1,0,0.,24.0,0.,24.0,0.,24.0,0.,24.0
1979-07-16 22:12:55.940 ,2,1,0.,24.0,0.,24.0,0.,24.0,0.,24.0
1979-07-16 22:13:19.940 ,2,0,0.,24.0,0.,24.0,0.,24.0,0.,24.0
1979-07-16 22:14:31.940 ,0,0,0.,24.0,0.,24.0,0.,24.0,0.,24.0
1979-07-16 22:14:55.940 ,0,0,0.,24.0,0.,24.0,0.,24.0,0.,24.0
1979-07-16 22:15:19.940 ,5,1,0.,24.0,0.,24.0,0.,24.0,0.,24.0
1979-07-16 22:15:43.940 ,5,0,0.,24.0,0.,24.0,0.,24.0,0.,24.0
1979-07-16 22:16:07.940 ,6,1,0.,24.0,0.,24.0,0.,24.0,0.,24.0
1979-07-16 22:16:31.940 ,6,0,0.,24.0,0.,24.0,0.,24.0,0.,24.0
1979-07-16 22:16:55.940 ,7,1,0.,24.0,0.,24.0,0.,24.0,0.,24.0
1979-07-16 22:17:19.940 ,7,0,0.,24.0,0.,24.0,0.,24.0,0.,24.0
1979-07-16 22:17:43.940 ,7,1,0.,24.0,0.,24.0,0.,24.0,0.,24.0
1979-07-16 22:18:07.940 ,7,0,0.,24.0,0.,24.0,0.,24.0,0.,24.0
1979-07-16 22:18:31.940 ,6,1,0.,24.0,0.,24.0,0.,24.0,0.,24.0
1979-07-16 22:18:55.940 ,6,0,0.,24.0,0.,24.0,0.,24.0,0.,24.0
1979-07-16 22:19:19.940 ,5,1,0.,24.0,0.,24.0,0.,24.0,0.,24.0
1979-07-16 22:19:43.940 ,5,0,0.,24.0,0.,24.0,0.,24.0,0.,24.0
1979-07-16 22:20:07.940 ,4,1,0.,24.0,0.,24.0,0.,24.0,0.,24.0
1979-07-16 22:20:31.940 ,4,0,0.,24.0,0.,24.0,0.,24.0,0.,24.0
1979-07-16 22:20:55.940 ,3,1,0.,24.0,0.,24.0,0.,24.0,0.,24.0
1979-07-16 22:21:19.940 ,3,0,0.,24.0,0.,24.0,0.,24.0,0.,24.0
1979-07-16 22:21:43.940 ,2,1,0.,24.0,0.,24.0,0.,24.0,0.,24.0
1979-07-16 22:22:07.940 ,2,0,0.,24.0,0.,24.0,0.,24.0,0.,24.0
1979-07-16 22:22:31.940 ,1,1,0.,24.0,0.,24.0,0.,24.0,0.,24.0
1979-07-16 22:22:55.940 ,1,0,0.,24.0,0.,24.0,0.,24.0,0.,24.0
1979-07-16 22:23:19.940 ,0,1,0.,24.0,0.,24.0,0.,24.0,0.,24.0
1979-07-16 22:23:43.940 ,0,0,0.,24.0,0.,24.0,0.,24.0,0.,24.0
1979-07-16 22:24:55.940 ,0,0,0.,24.0,0.,24.0,0.,24.0,0.,24.0
1979-07-16 22:25:19.940 ,0,0,0.,24.0,0.,24.0,0.,24.0,0.,24.0
1979-07-16 22:25:43.940 ,2,1,0.,24.0,0.,24.0,0.,24.0,0.,24.0
1979-07-16 22:26:07.940 ,2,0,0.,24.0,0.,24.0,0.,24.0,0.,24.0
1979-07-16 22:26:31.940 ,3,1,0.,24.0,0.,24.0,0.,24.0,0.,24.0
1979-07-16 22:26:55.940 ,3,0,0.,24.0,0.,24.0,0.,24.0,0.,24.0
1979-07-16 22:27:19.940 ,4,1,0.,24.0,0.,24.0,0.,24.0,0.,24.0
1979-07-16 22:27:43.940 ,4,0,0.,24.0,0.,24.0,0.,24.0,0.,24.0
1979-07-16 22:28:07.940 ,5,1,0.,24.0,0.,24.0,0.,24.0,0.,24.0
1979-07-16 22:28:31.940 ,5,0,0.,24.0,0.,24.0,0.,24.0,0.,24.0
1979-07-16 22:28:55.940 ,6,1,0.,24.0,0.,24.0,0.,24.0,0.,24.0
1979-07-16 22:29:19.940 ,6,0,0.,24.0,0.,24.0,0.,24.0,0.,24.0
1979-07-16 22:29:43.940 ,7,1,0.,24.0,0.,24.0,0.,24.0,0.,24.0
1979-07-16 22:30:07.940 ,7,0,0.,24.0,0.,24.0,0.,24.0,0.,24.0
1979-07-16 22:30:31.940 ,7,1,0.,24.0,0.,24.0,0.,24.0,0.,24.0
1979-07-16 22:30:55.940 ,7,0,0.,24.0,0.,24.0,0.,24.0,0.,24.0
1979-07-16 22:31:19.940 ,6,1,0.,24.0,0.,24.0,0.,24.0,0.,24.0
1979-07-16 22:31:43.940 ,6,0,0.,24.0,0.,24.0,0.,24.0,0.,24.0
1979-07-16 22:32:07.940 ,5,1,0.,24.0,0.,24.0,0.,24.0,0.,24.0
1979-07-16 22:32:31.940 ,5,0,0.,24.0,0.,24.0,0.,24.0,0.,24.0
1979-07-16 22:32:55.940 ,4,1,0.,24.0,0.,24.0,0.,24.0,0.,24.0
1979-07-16 22:33:19.940 ,4,0,0.,24.0,0.,24.0,0.,24.0,0.,24.0
1979-07-16 22:33:43.940 ,3,1,0.,24.0,0.,24.0,0.,24.0,0.,24.0
1979-07-16 22:34:07.940 ,3,0,0.,24.0,0.,24.0,0.,24.0,0.,24.0
1979-07-16 22:34:31.940 ,2,1,0.,24.0,0.,24.0,0.,24.0,0.,24.0
1979-07-16 22:34:55.940 ,2,0,0.,24.0,0.,24.0,0.,24.0,0.,24.0
1979-07-16 22:35:19.940 ,1,1,0.,24.0,0.,24.0,0.,24.0,0.,24.0
1979-07-16 22:35:43.940 ,1,0,0.,24.0,0.,24.0,0.,24.0,0.,24.0
1979-07-16 22:36:07.940 ,0,1,0.,24.0,0.,24.0,0.,24.0,0.,24.0
1979-07-16 22:36:31.940 ,0,0,0.,24.0,0.,24.0,0.,24.0,0.,24.0
1979-07-16 22:36:55.940 ,0,1,0.,24.0,0.,24.0,0.,24.0,0.,24.0
1979-07-16 22:37:19.940 ,0,0,0.,24.0,0.,24.0,0.,24.0,0.,24.0
1979-07-16 22:37:43.940 ,1,1,0.,24.0,0.,24.0,0.,24.0,0.,24.0
1979-07-16 22:38:07.940 ,1,0,0.,24.0,0.,24.0,0.,24.0,0.,24.0
1979-07-16 22:38:31.940 ,2,1,0.,24.0,0.,24.0,0.,24.0,0.,24.0
1979-07-16 22:38:55.940 ,2,0,0.,24.0,0.,24.0,0.,24.0,0.,24.0
1979-07-16 22:39:19.940 ,3,1,0.,24.0,0.,24.0,0.,24.0,0.,24.0
1979-07-16 22:39:43.940 ,3,0,0.,24.0,0.,24.0,0.,24.0,0.,24.0
1979-07-16 22:40:07.940 ,4,1,0.,24.0,0.,24.0,0.,24.0,0.,24.0
1979-07-16 22:40:31.940 ,4,0,0.,24.0,0.,24.0,0.,24.0,0.,24.0
1979-07-16 22:40:55.940 ,5,1,0.,24.0,0.,24.0,0.,24.0,0.,24.0
1979-07-16 22:41:19.940 ,5,0,0.,24.0,0.,24.0,0.,24.0,0.,24.0
1979-07-16 22:41:43.940 ,6,1,0.,24.0,0.,24.0,0.,24.0,0.,24.0
1979-07-16 22:42:07.940 ,6,0,0.,24.0,0.,24.0,0.,24.0,0.,24.0
1979-07-16 22:42:31.940 ,7,0,0.,24.0,0.,24.0,0.,24.0,0.,24.0
1979-07-16 22:42:55.940 ,7,0,0.,24.0,0.,24.0,0.,24.0,0.,24.0
1979-07-16 22:43:19.940 ,5,1,0.,24.0,0.,24.0,0.,24.0,0.,24.0
1979-07-16 22:43:43.940 ,1,1,0.,24.0,0.,24.0,0.,24.0,0.,24.0
1979-07-16 22:44:07.940 ,2,1,0.,24.0,0.,24.0,0.,24.0,0.,24.0
1979-07-16 22:44:31.940 ,6,1,0.,24.0,0.,24.0,0.,24.0,0.,24.0
1979-07-16 22:44:55.940 ,5,1,0.,24.0,0.,24.0,0.,24.0,0.,24.0
1979-07-16 22:45:19.940 ,1,1,0.,24.0,0.,24.0,0.,24.0,0.,24.0
1979-07-16 22:45:43.940 ,2,1,0.,24.0,0.,24.0,0.,24.0,0.,24.0
1979-07-16 22:46:07.940 ,6,1,0.,24.0,0.,24.0,0.,24.0,0.,24.0
1979-07-16 22:46:31.940 ,5,1,0.,24.0,0.,24.0,0.,24.0,0.,24.0
1979-07-16 22:46:55.940 ,1,1,0.,24.0,0.,24.0,0.,24.0,0.,24.0
1979-07-16 22:47:19.940 ,2,1,0.,24.0,0.,24.0,0.,24.0,0.,24.0
1979-07-16 22:47:43.940 ,6,1,0.,24.0,0.,24.0,0.,24.0,0.,24.0
1979-07-16 22:48:07.940 ,5,1,0.,24.0,0.,24.0,0.,24.0,0.,24.0
1979-07-16 22:48:31.940 ,1,1,0.,24.0,0.,24.0,0.,24.0,0.,24.0
1979-07-16 22:48:55.940 ,2,1,0.,24.0,0.,24.0,0.,24.0,0.,24.0
1979-07-16 22:49:19.940 ,6,1,0.,24.0,0.,24.0,0.,24.0,0.,24.0
1979-07-16 22:49:43.940 ,5,1,0.,24.0,0.,24.0,0.,24.0,0.,24.0
1979-07-16 22:50:07.940 ,1,1,0.,24.0,0.,24.0,0.,24.0,0.,24.0
1979-07-16 22:50:31.940 ,2,1,0.,24.0,0.,24.0,0.,24.0,0.,24.0
1979-07-16 22:50:55.940 ,6,1,0.,24.0,0.,24.0,0.,24.0,0.,24.0
1979-07-16 22:51:19.940 ,5,1,0.,24.0,0.,24.0,0.,24.0,0.,24.0
1979-07-16 22:51:43.940 ,1,1,0.,24.0,0.,24.0,0.,24.0,0.,24.0
1979-07-16 22:52:07.940 ,2,1,0.,24.0,0.,24.0,0.,24.0,0.,24.0
1979-07-16 22:52:31.940 ,6,1,0.,24.0,0.,24.0,0.,24.0,0.,24.0
1979-07-16 22:52:55.940 ,5,1,0.,24.0,0.,24.0,0.,24.0,0.,24.0
1979-07-16 22:53:19.940 ,1,1,0.,24.0,0.,24.0,0.,24.0,0.,24.0
1979-07-16 22:53:43.940 ,0,0,0.,24.0,0.,24.0,0.,24.0,0.,24.0
1979-07-16 22:54:07.940 ,0,0,0.,24.0,0.,24.0,0.,24.0,0.,24.0
1979-07-16 22:54:31.940 ,5,1,0.,24.0,0.,24.0,0.,24.0,0.,24.0
1979-07-16 22:54:55.940 ,5,0,0.,24.0,0.,24.0,0.,24.0,0.,24.0
1979-07-16 22:55:19.940 ,4,1,0.,24.0,0.,24.0,0.,24.0,0.,24.0
1979-07-16 22:55:43.940 ,4,0,0.,24.0,0.,24.0,0.,24.0,0.,24.0
1979-07-16 22:56:07.940 ,3,1,0.,24.0,0.,24.0,0.,24.0,0.,24.0
1979-07-16 22:56:31.940 ,3,0,0.,24.0,0.,24.0,0.,24.0,0.,24.0
1979-07-16 22:56:55.940 ,2,1,0.,24.0,0.,24.0,0.,24.0,0.,24.0
1979-07-16 22:57:19.940 ,2,0,0.,24.0,0.,24.0,0.,24.0,0.,24.0
1979-07-16 22:57:43.940 ,1,1,0.,24.0,0.,24.0,0.,24.0,0.,24.0
1979-07-16 22:58:07.940 ,1,0,0.,24.0,0.,24.0,0.,24.0,0.,24.0
1979-07-16 22:58:31.940 ,0,1,0.,24.0,0.,24.0,0.,24.0,0.,24.0
1979-07-16 22:58:55.940 ,0,0,0.,24.0,0.,24.0,0.,24.0,0.,24.0
1979-07-16 22:59:19.940 ,0,1,0.,24.0,0.,24.0,0.,24.0,0.,24.0
1979-07-16 22:59:43.940 ,0,0,0.,24.0,0.,24.0,0.,24.0,0.,24.0
1979-07-16 23:00:07.940 ,1,1,0.,24.0,0.,24.0,0.,24.0,0.,24.0
1979-07-16 23:00:31.940 ,1,0,0.,24.0,0.,24.0,0.,24.0,0.,24.0
1979-07-16 23:00:55.940 ,2,1,0.,24.0,0.,24.0,0.,24.0,0.,24.0
1979-07-16 23:01:19.940 ,2,0,0.,24.0,0.,24.0,0.,24.0,0.,24.0
1979-07-16 23:01:43.940 ,3,1,0.,24.0,0.,24.0,0.,24.0,0.,24.0
1979-07-16 23:02:07.940 ,3,0,0.,24.0,0.,24.0,0.,24.0,0.,24.0
1979-07-16 23:03:19.940 ,0,0,0.,24.0,0.,24.0,0.,24.0,0.,24.0
1979-07-16 23:03:43.940 ,0,0,0.,24.0,0.,24.0,0.,24.0,0.,24.0
1979-07-16 23:04:07.940 ,6,1,0.,24.0,0.,24.0,0.,24.0,0.,24.0
1979-07-16 23:04:31.940 ,6,0,0.,24.0,0.,24.0,0.,24.0,0.,24.0
1979-07-16 23:04:55.940 ,7,1,0.,24.0,0.,24.0,0.,24.0,0.,24.0
1979-07-16 23:05:19.940 ,7,0,0.,24.0,0.,24.0,0.,24.0,0.,24.0
1979-07-16 23:05:43.940 ,7,1,0.,24.0,0.,24.0,0.,24.0,0.,24.0
1979-07-16 23:06:07.940 ,7,0,0.,24.0,0.,24.0,0.,24.0,0.,24.0
1979-07-16 23:06:31.940 ,6,1,0.,24.0,0.,24.0,0.,24.0,0.,24.0
1979-07-16 23:06:55.940 ,6,0,0.,24.0,0.,24.0,0.,24.0,0.,24.0
1979-07-16 23:11:19.940 ,0,0,0.,24.0,0.,24.0,0.,24.0,0.,24.0
1979-07-16 23:11:43.940 ,0,0,0.,24.0,0.,24.0,0.,24.0,0.,24.0
1979-07-16 23:12:07.940 ,0,1,0.,24.0,0.,24.0,0.,24.0,0.,24.0
1979-07-16 23:12:31.940 ,0,0,0.,24.0,0.,24.0,0.,24.0,0.,24.0
1979-07-16 23:12:55.940 ,1,1,0.,24.0,0.,24.0,0.,24.0,0.,24.0
1979-07-16 23:13:19.940 ,1,0,0.,24.0,0.,24.0,0.,24.0,0.,24.0
1979-07-16 23:13:43.940 ,2,1,0.,24.0,0.,24.0,0.,24.0,0.,24.0
1979-07-16 23:14:07.940 ,2,0,0.,24.0,0.,24.0,0.,24.0,0.,24.0
1979-07-16 23:14:31.940 ,3,1,0.,24.0,0.,24.0,0.,24.0,0.,24.0
1979-07-16 23:14:55.940 ,3,0,0.,24.0,0.,24.0,0.,24.0,0.,24.0
1979-07-16 23:15:19.940 ,4,1,0.,24.0,0.,24.0,0.,24.0,0.,24.0
1979-07-16 23:15:43.940 ,4,0,0.,24.0,0.,24.0,0.,24.0,0.,24.0
1979-07-16 23:16:07.940 ,5,1,0.,24.0,0.,24.0,0.,24.0,0.,24.0
1979-07-16 23:16:31.940 ,5,0,0.,24.0,0.,24.0,0.,24.0,0.,24.0
1979-07-16 23:16:55.940 ,6,1,0.,24.0,0.,24.0,0.,24.0,0.,24.0
1979-07-16 23:17:19.940 ,6,0,0.,24.0,0.,24.0,0.,24.0,0.,24.0
1979-07-16 23:17:43.940 ,7,1,0.,24.0,0.,24.0,0.,24.0,0.,24.0
1979-07-16 23:18:07.940 ,7,0,0.,24.0,0.,24.0,0.,24.0,0.,24.0
1979-07-16 23:18:31.940 ,7,1,0.,24.0,0.,24.0,0.,24.0,0.,24.0
1979-07-16 23:18:55.940 ,7,0,0.,24.0,0.,24.0,0.,24.0,0.,24.0
1979-07-16 23:19:19.940 ,6,1,0.,24.0,0.,24.0,0.,24.0,0.,24.0
1979-07-16 23:19:43.940 ,6,0,0.,24.0,0.,24.0,0.,24.0,0.,24.0
1979-07-16 23:20:55.940 ,0,0,0.,24.0,0.,24.0,0.,24.0,0.,24.0
1979-07-16 23:21:19.940 ,0,0,0.,24.0,0.,24.0,0.,24.0,0.,24.0
1979-07-16 23:21:43.940 ,3,1,0.,24.0,0.,24.0,0.,24.0,0.,24.0
1979-07-16 23:22:07.940 ,3,0,0.,24.0,0.,24.0,0.,24.0,0.,24.0
1979-07-16 23:22:31.940 ,2,1,0.,24.0,0.,24.0,0.,24.0,0.,24.0
1979-07-16 23:22:55.940 ,2,0,0.,24.0,0.,24.0,0.,24.0,0.,24.0
1979-07-16 23:23:19.940 ,1,1,0.,24.0,0.,24.0,0.,24.0,0.,24.0
1979-07-16 23:23:43.940 ,1,0,0.,24.0,0.,24.0,0.,24.0,0.,24.0
1979-07-16 23:24:07.940 ,0,1,0.,24.0,0.,24.0,0.,24.0,0.,24.0
1979-07-16 23:24:31.940 ,0,0,0.,24.0,0.,24.0,0.,24.0,0.,24.0
1979-07-16 23:24:55.940 ,0,1,0.,24.0,0.,24.0,0.,24.0,0.,24.0
1979-07-16 23:25:19.940 ,0,0,0.,24.0,0.,24.0,0.,24.0,0.,24.0
1979-07-16 23:25:43.940 ,1,1,0.,24.0,0.,24.0,0.,24.0,0.,24.0
1979-07-16 23:26:07.940 ,1,0,0.,24.0,0.,24.0,0.,24.0,0.,24.0
1979-07-16 23:26:31.940 ,2,1,0.,24.0,0.,24.0,0.,24.0,0.,24.0
1979-07-16 23:26:55.940 ,2,0,0.,24.0,0.,24.0,0.,24.0,0.,24.0
1979-07-16 23:27:19.940 ,3,1,0.,24.0,0.,24.0,0.,24.0,0.,24.0
1979-07-16 23:27:43.940 ,3,0,0.,24.0,0.,24.0,0.,24.0,0.,24.0
1979-07-16 23:28:07.940 ,4,1,0.,24.0,0.,24.0,0.,24.0,0.,24.0
1979-07-16 23:28:31.940 ,4,0,0.,24.0,0.,24.0,0.,24.0,0.,24.0
1979-07-16 23:28:55.940 ,5,1,0.,24.0,0.,24.0,0.,24.0,0.,24.0
1979-07-16 23:29:19.940 ,5,0,0.,24.0,0.,24.0,0.,24.0,0.,24.0
1979-07-16 23:29:43.940 ,6,1,0.,24.0,0.,24.0,0.,24.0,0.,24.0
1979-07-16 23:30:07.940 ,6,0,0.,24.0,0.,24.0,0.,24.0,0.,24.0
1979-07-16 23:30:31.940 ,7,0,0.,24.0,0.,24.0,0.,24.0,0.,24.0
1979-07-16 23:30:55.940 ,7,0,0.,24.0,0.,24.0,0.,24.0,0.,24.0
1979-07-16 23:31:19.940 ,5,1,0.,24.0,0.,24.0,0.,24.0,0.,24.0
1979-07-16 23:31:43.940 ,1,1,0.,24.0,0.,24.0,0.,24.0,0.,24.0
1979-07-16 23:32:07.940 ,2,1,0.,24.0,0.,24.0,0.,24.0,0.,24.0
1979-07-16 23:32:31.940 ,6,1,0.,24.0,0.,24.0,0.,24.0,0.,24.0
1979-07-16 23:32:55.940 ,5,1,0.,24.0,0.,24.0,0.,24.0,0.,24.0
1979-07-16 23:33:19.940 ,1,1,0.,24.0,0.,24.0,0.,24.0,0.,24.0
1979-07-16 23:33:43.940 ,2,1,0.,24.0,0.,24.0,0.,24.0,0.,24.0
1979-07-16 23:34:07.940 ,6,1,0.,24.0,0.,24.0,0.,24.0,0.,24.0
1979-07-16 23:34:31.930 ,5,1,0.,24.0,0.,24.0,0.,24.0,0.,24.0
1979-07-16 23:34:55.930 ,1,1,0.,24.0,0.,24.0,0.,24.0,0.,24.0
1979-07-16 23:35:19.930 ,2,1,0.,24.0,0.,24.0,0.,24.0,0.,24.0
1979-07-16 23:35:43.930 ,6,1,0.,24.0,0.,24.0,0.,24.0,0.,24.0
1979-07-16 23:36:07.930 ,5,1,0.,24.0,0.,24.0,0.,24.0,0.,24.0
1979-07-16 23:36:31.930 ,1,1,0.,24.0,0.,24.0,0.,24.0,0.,24.0
1979-07-16 23:36:55.930 ,2,1,0.,24.0,0.,24.0,0.,24.0,0.,24.0
1979-07-16 23:37:19.930 ,6,1,0.,24.0,0.,24.0,0.,24.0,0.,24.0
1979-07-16 23:37:43.930 ,5,1,0.,24.0,0.,24.0,0.,24.0,0.,24.0
1979-07-16 23:38:07.930 ,1,1,0.,24.0,0.,24.0,0.,24.0,0.,24.0
1979-07-16 23:38:31.930 ,2,1,0.,24.0,0.,24.0,0.,24.0,0.,24.0
1979-07-16 23:38:55.930 ,6,1,0.,24.0,0.,24.0,0.,24.0,0.,24.0
1979-07-16 23:39:19.930 ,5,1,0.,24.0,0.,24.0,0.,24.0,0.,24.0
1979-07-16 23:39:43.930 ,1,1,0.,24.0,0.,24.0,0.,24.0,0.,24.0
1979-07-16 23:40:07.930 ,2,1,0.,24.0,0.,24.0,0.,24.0,0.,24.0
1979-07-16 23:40:31.930 ,6,1,0.,24.0,0.,24.0,0.,24.0,0.,24.0
1979-07-16 23:40:55.930 ,5,1,0.,24.0,0.,24.0,0.,24.0,0.,24.0
1979-07-16 23:41:19.930 ,1,1,0.,24.0,0.,24.0,0.,24.0,0.,24.0
1979-07-16 23:41:43.930 ,0,0,0.,24.0,0.,24.0,0.,24.0,0.,24.0